This demonstration page uses our WeatherBlox Daily Observations layout. Learn more.

Left ArrowRight Arrow

Hourly Observations for January 12, 2022

Temp ( °F °C ) Dew Point ( °F °C ) Humidity (%) Winds ( mph kmh ) Pressure ( in mb ) Visibility ( mi km ) Precip ( " mm )
12:54 am 00:54 Clear 27 -2.8 17 -8.3 66 66 Calm 30.16 1021 10 16 0.00 0.00
1:54 am 01:54 Clear 31 -0.6 18 -7.8 59 59 Calm 30.14 1021 10 16 0.00 0.00
2:54 am 02:54 Clear 24 -4.4 16 -8.9 71 71 Calm 30.14 1021 10 16 0.00 0.00
3:54 am 03:54 Clear 26 -3.3 16 -8.9 66 66 S 5 7 30.11 1020 10 16 0.00 0.00
4:54 am 04:54 Clear 29 -1.7 19 -7.2 66 66 SSW 6 9 30.09 1019 10 16 0.00 0.00
5:54 am 05:54 Clear 30 -1.1 19 -7.2 64 64 SSW 6 9 30.07 1018 10 16 0.00 0.00
6:54 am 06:54 Clear 31 -0.6 19 -7.2 61 61 W 5 7 30.08 1019 10 16 0.00 0.00
7:54 am 07:54 Sunny 31 -0.6 19 -7.2 61 61 WSW 5 7 30.09 1019 10 16 0.00 0.00
8:54 am 08:54 Sunny 28 -2.2 19 -7.2 69 69 SW 3 6 30.12 1020 10 16 0.00 0.00
9:54 am 09:54 Sunny 42 5.6 22 -5.6 45 45 WNW 8 13 30.10 1019 10 16 0.00 0.00
10:54 am 10:54 Sunny 48 8.9 22 -5.6 36 36 NNW 10 17 30.11 1020 10 16 0.00 0.00
11:54 am 11:54 Sunny 53 11.7 24 -4.4 32 32 NW 12 19 30.11 1020 10 16 0.00 0.00
12:54 pm 12:54 Sunny 54 12.2 24 -4.4 31 31 WNW 13 20 30.09 1019 10 16 0.00 0.00
1:54 pm 13:54 Sunny 56 13.3 25 -3.9 30 30 WNW 10 17 30.06 1018 10 16 0.00 0.00
2:54 pm 14:54 Sunny 59 15 26 -3.3 28 28 WNW 15 24 30.05 1018 10 16 0.00 0.00
3:54 pm 15:54 Sunny 58 14.4 25 -3.9 28 28 WNW 14 22 30.06 1018 10 16 0.00 0.00
4:54 pm 16:54 Sunny 55 12.8 25 -3.9 31 31 WNW 8 13 30.07 1018 10 16 0.00 0.00
5:54 pm 17:54 Clear 51 10.6 24 -4.4 35 35 Calm 30.06 1018 10 16 0.00 0.00
6:54 pm 18:54 Clear 41 5 23 -5 49 49 W 3 6 30.08 1019 10 16 0.00 0.00
7:54 pm 19:54 Cloudy 39 3.9 22 -5.6 50 50 SW 3 6 30.08 1019 10 16 0.00 0.00
8:54 pm 20:54 Cloudy 42 5.6 24 -4.4 49 49 Calm 30.08 1019 10 16 0.00 0.00
9:54 pm 21:54 Cloudy 44 6.7 24 -4.4 45 45 WSW 5 7 30.05 1018 10 16 0.00 0.00
10:54 pm 22:54 Cloudy 45 7.2 24 -4.4 44 44 Calm 30.03 1017 10 16 0.00 0.00
11:54 pm 23:54 Partly Cloudy 42 5.6 23 -5 47 47 W 3 6 30.02 1017 10 16 0.00 0.00

Powered by AerisWeather